Terminal Aerodrome Forecast
Issued by NWS

Home | Current Version | Previous Version | Text Only | Print | Product List | Glossary On
Versions: 1 2 3 4 5 6 7 8 9 10 11 12 13 14 15 16 17 18 19 20 21 22 23 24 25 26 27 28 29 30 31 32 33 34 35 36
000
FTPA31 PHFO 011100
TAFLNY
TAF
PHNY 011137Z 0112/0212 08005KT P6SM FEW020 SCT100
     FM012000 26008KT P6SM SCT030 SCT100
      TEMPO 0122/0202 BKN025
     FM020400 04009KT P6SM SCT030
      AMD NOT SKED=

USA.gov is the U.S. government's official web portal to all federal, state and local government web resources and services.